| time (UTC) | temp F | wind direction | speed knots | gust knots | rain 1hr in | rain 24hr in | rain mn in | humidity % | barometer mb |
| 20260509033946 | 86 | 130 | 3.5 | 3.5 | 0.00 | 0.00 | 0.00 | 71 | 1010.0 |
| 20260509033446 | 85 | 155 | 3.5 | 5.2 | 0.00 | 0.00 | 0.00 | 72 | 1010.0 |
| 20260509032946 | 86 | 125 | 3.5 | 3.5 | 0.00 | 0.00 | 0.00 | 71 | 1011.0 |
| 20260509032446 | 85 | 119 | 5.2 | 7.0 | 0.00 | 0.00 | 0.00 | 73 | 1011.0 |
| 20260509031947 | 85 | 34 | 2.6 | 3.5 | 0.00 | 0.00 | 0.00 | 75 | 1010.0 |
| 20260509031446 | 85 | 95 | 1.7 | 1.7 | 0.00 | 0.00 | 0.00 | 75 | 1011.0 |
| 20260509030946 | 83 | 73 | 3.5 | 5.2 | 0.00 | 0.00 | 0.00 | 76 | 1010.0 |
| 20260509030447 | 84 | 13 | 2.6 | 6.1 | 0.00 | 0.00 | 0.00 | 74 | 1010.0 |
| 20260509025947 | 84 | 359 | 7.0 | 7.8 | 0.00 | 0.00 | 0.00 | 75 | 1010.0 |
| 20260509025446 | 84 | 7 | 4.3 | 6.1 | 0.00 | 0.00 | 0.00 | 74 | 1010.0 |
| 20260509024947 | 83 | 12 | 2.6 | 3.5 | 0.00 | 0.00 | 0.00 | 76 | 1010.0 |
| 20260509024446 | 83 | 342 | 4.3 | 5.2 | 0.00 | 0.00 | 0.00 | 76 | 1010.0 |
| 20260509023947 | 83 | 25 | 4.3 | 6.1 | 0.00 | 0.00 | 0.00 | 77 | 1010.0 |
| 20260509023447 | 83 | 16 | 2.6 | 3.5 | 0.00 | 0.00 | 0.00 | 77 | 1010.0 |
| 20260509022947 | 83 | 334 | 0.9 | 0.9 | 0.00 | 0.00 | 0.00 | 78 | 1010.0 |
| 20260509022446 | 83 | 24 | 0.9 | 0.9 | 0.00 | 0.00 | 0.00 | 78 | 1010.0 |
| 20260509021946 | 82 | 31 | 3.5 | 5.2 | 0.00 | 0.00 | 0.00 | 79 | 1010.0 |
| 20260509021447 | 82 | 347 | 1.7 | 1.7 | 0.00 | 0.00 | 0.00 | 81 | 1010.0 |
| 20260509020946 | 81 | 347 | 1.7 | 1.7 | 0.00 | 0.00 | 0.00 | 83 | 1010.0 |
| 20260509020446 | 80 | 343 | 1.7 | 1.7 | 0.00 | 0.00 | 0.00 | 85 | 1010.0 |
| 20260509015946 | 80 | 342 | 1.7 | 1.7 | 0.00 | 0.00 | 0.00 | 87 | 1010.0 |
| 20260509015446 | 80 | 340 | 1.7 | 1.7 | 0.00 | 0.00 | 0.00 | 87 | 1010.0 |
| 20260509014946 | 80 | 337 | 2.6 | 2.6 | 0.00 | 0.00 | 0.00 | 88 | 1010.0 |
| 20260509014446 | 79 | 328 | 2.6 | 2.6 | 0.00 | 0.00 | 0.00 | 88 | 1010.0 |
| 20260509013946 | 79 | 349 | 2.6 | 2.6 | 0.00 | 0.00 | 0.00 | 89 | 1010.0 |
| 20260509013446 | 79 | 344 | 0.9 | 1.7 | 0.00 | 0.00 | 0.00 | 90 | 1010.0 |
| 20260509012946 | 78 | 333 | 0.0 | 0.9 | 0.00 | 0.00 | 0.00 | 91 | 1010.0 |
| 20260509012446 | 78 | 338 | 1.7 | 2.6 | 0.00 | 0.00 | 0.00 | 92 | 1009.0 |
| 20260509011946 | 78 | 349 | 1.7 | 1.7 | 0.00 | 0.00 | 0.00 | 92 | 1009.0 |
| 20260509011446 | 78 | 338 | 1.7 | 2.6 | 0.00 | 0.00 | 0.00 | 92 | 1009.0 |
| 20260509010947 | 78 | 348 | 0.9 | 1.7 | 0.00 | 0.00 | 0.00 | 92 | 1009.0 |
| 20260509010447 | 78 | 357 | 0.9 | 1.7 | 0.00 | 0.00 | 0.00 | 92 | 1009.0 |
| 20260509005946 | 78 | 345 | 1.7 | 1.7 | 0.00 | 0.00 | 0.00 | 93 | 1009.0 |
| 20260509005446 | 78 | 10 | 2.6 | 2.6 | 0.00 | 0.00 | 0.00 | 93 | 1009.0 |
| 20260509004946 | 78 | 346 | 3.5 | 3.5 | 0.00 | 0.00 | 0.00 | 93 | 1009.0 |
| 20260509004446 | 77 | 12 | 1.7 | 2.6 | 0.00 | 0.00 | 0.00 | 93 | 1009.0 |
| 20260509003947 | 77 | 0 | 1.7 | 2.6 | 0.00 | 0.00 | 0.00 | 93 | 1009.0 |
| 20260509003446 | 77 | 349 | 1.7 | 2.6 | 0.00 | 0.00 | 0.00 | 93 | 1009.0 |
| 20260509002946 | 77 | 321 | 0.9 | 1.7 | 0.00 | 0.00 | 0.00 | 92 | 1009.0 |
| 20260509002446 | 77 | 319 | 1.7 | 1.7 | 0.00 | 0.00 | 0.00 | 92 | 1009.0 |
| 20260509001946 | 77 | 214 | 0.9 | 0.9 | 0.00 | 0.00 | 0.00 | 92 | 1009.0 |
| 20260509001446 | 77 | 214 | 0.9 | 0.9 | 0.00 | 0.00 | 0.00 | 92 | 1009.0 |
| 20260509000946 | 78 | 213 | 0.0 | 0.0 | 0.00 | 0.00 | 0.00 | 92 | 1009.0 |
| 20260509000447 | 78 | 213 | 0.0 | 0.0 | 0.00 | 0.00 | 0.00 | 92 | 1009.0 |
| 20260508235946 | 78 | 213 | 0.0 | 0.0 | 0.00 | 0.00 | 0.00 | 91 | 1009.0 |
| 20260508235446 | 78 | 213 | 0.0 | 0.0 | 0.00 | 0.00 | 0.00 | 91 | 1009.0 |
| 20260508234946 | 78 | 213 | 0.0 | 0.0 | 0.00 | 0.00 | 0.00 | 91 | 1009.0 |
| 20260508234446 | 78 | 213 | 0.0 | 0.9 | 0.00 | 0.00 | 0.00 | 91 | 1009.0 |
| 20260508233946 | 78 | 213 | 0.9 | 0.9 | 0.00 | 0.00 | 0.00 | 91 | 1009.0 |
| 20260508233446 | 78 | 213 | 0.0 | 0.0 | 0.00 | 0.00 | 0.00 | 91 | 1009.0 |
| 20260508232946 | 78 | 213 | 0.0 | 0.0 | 0.00 | 0.00 | 0.00 | 91 | 1009.0 |
| 20260508232446 | 78 | 213 | 0.0 | 0.0 | 0.00 | 0.00 | 0.00 | 91 | 1009.0 |
| 20260508231946 | 78 | 213 | 0.0 | 0.9 | 0.00 | 0.00 | 0.00 | 91 | 1009.0 |
| 20260508231446 | 78 | 213 | 0.9 | 0.9 | 0.00 | 0.00 | 0.00 | 91 | 1009.0 |
| 20260508230946 | 78 | 213 | 0.0 | 0.0 | 0.00 | 0.00 | 0.00 | 91 | 1009.0 |
| 20260508230446 | 78 | 213 | 0.0 | 0.0 | 0.00 | 0.00 | 0.00 | 91 | 1009.0 |
| 20260508225946 | 78 | 213 | 0.0 | 0.0 | 0.00 | 0.00 | 0.00 | 91 | 1008.0 |
| 20260508225448 | 78 | 287 | 0.9 | 0.9 | 0.00 | 0.00 | 0.00 | 91 | 1008.0 |
| 20260508224948 | 78 | 290 | 0.0 | 0.9 | 0.00 | 0.00 | 0.00 | 90 | 1009.0 |
| 20260508224447 | 78 | 291 | 0.0 | 0.9 | 0.00 | 0.00 | 0.00 | 90 | 1008.0 |
| 20260508223946 | 78 | 291 | 0.9 | 0.9 | 0.00 | 0.00 | 0.00 | 90 | 1008.0 |
| 20260508223446 | 78 | 291 | 0.0 | 0.0 | 0.00 | 0.00 | 0.00 | 90 | 1008.0 |
| 20260508222946 | 78 | 291 | 0.0 | 0.0 | 0.00 | 0.00 | 0.00 | 90 | 1008.0 |
| 20260508222446 | 78 | 291 | 0.0 | 0.0 | 0.00 | 0.00 | 0.00 | 90 | 1008.0 |
| 20260508221946 | 78 | 291 | 0.0 | 0.9 | 0.00 | 0.00 | 0.00 | 90 | 1008.0 |
| 20260508221446 | 78 | 292 | 0.0 | 0.0 | 0.00 | 0.00 | 0.00 | 90 | 1008.0 |
| 20260508220946 | 78 | 292 | 0.0 | 0.0 | 0.00 | 0.00 | 0.00 | 90 | 1008.0 |
| 20260508220446 | 78 | 292 | 0.0 | 0.0 | 0.00 | 0.00 | 0.00 | 90 | 1008.0 |
| 20260508215947 | 78 | 292 | 0.0 | 0.0 | 0.00 | 0.00 | 0.00 | 90 | 1008.0 |
| 20260508215446 | 78 | 292 | 0.0 | 0.9 | 0.00 | 0.00 | 0.00 | 89 | 1008.0 |
| 20260508214946 | 78 | 292 | 0.0 | 0.0 | 0.00 | 0.00 | 0.00 | 89 | 1008.0 |
| 20260508214446 | 78 | 292 | 0.0 | 0.0 | 0.00 | 0.00 | 0.00 | 89 | 1008.0 |
| 20260508213946 | 78 | 292 | 0.0 | 0.0 | 0.00 | 0.00 | 0.00 | 89 | 1008.0 |
| 20260508213447 | 78 | 292 | 0.0 | 0.0 | 0.00 | 0.00 | 0.00 | 89 | 1008.0 |
| 20260508212948 | 78 | 292 | 0.0 | 0.9 | 0.00 | 0.00 | 0.00 | 89 | 1008.0 |
| 20260508212446 | 78 | 292 | 0.9 | 0.9 | 0.00 | 0.00 | 0.00 | 88 | 1008.0 |
| 20260508211946 | 79 | 292 | 0.0 | 0.0 | 0.00 | 0.00 | 0.00 | 88 | 1008.0 |
| 20260508211447 | 79 | 292 | 0.0 | 0.0 | 0.00 | 0.00 | 0.00 | 88 | 1008.0 |
| 20260508210946 | 79 | 292 | 0.0 | 0.0 | 0.00 | 0.00 | 0.00 | 87 | 1008.0 |
| 20260508210446 | 79 | 292 | 0.0 | 0.0 | 0.00 | 0.00 | 0.00 | 87 | 1008.0 |
| 20260508205946 | 79 | 292 | 0.0 | 0.0 | 0.00 | 0.00 | 0.00 | 87 | 1008.0 |
| 20260508205446 | 79 | 292 | 0.0 | 0.0 | 0.00 | 0.00 | 0.00 | 87 | 1008.0 |
| 20260508204947 | 78 | 292 | 0.0 | 0.0 | 0.00 | 0.00 | 0.00 | 87 | 1008.0 |
| 20260508204446 | 78 | 292 | 0.0 | 0.0 | 0.00 | 0.00 | 0.00 | 87 | 1009.0 |
| 20260508203946 | 78 | 292 | 0.0 | 0.0 | 0.00 | 0.00 | 0.00 | 87 | 1009.0 |
| 20260508203447 | 78 | 292 | 0.0 | 0.0 | 0.00 | 0.00 | 0.00 | 87 | 1009.0 |
| 20260508202948 | 78 | 292 | 0.0 | 0.0 | 0.00 | 0.00 | 0.00 | 87 | 1009.0 |
| 20260508202446 | 78 | 292 | 0.0 | 0.0 | 0.00 | 0.00 | 0.00 | 88 | 1009.0 |
| 20260508201946 | 78 | 292 | 0.0 | 0.9 | 0.00 | 0.00 | 0.00 | 87 | 1009.0 |
| 20260508201446 | 78 | 292 | 0.0 | 0.0 | 0.00 | 0.00 | 0.00 | 87 | 1009.0 |
| 20260508200947 | 78 | 292 | 0.0 | 0.0 | 0.00 | 0.00 | 0.00 | 87 | 1009.0 |
| 20260508200447 | 78 | 292 | 0.0 | 0.9 | 0.00 | 0.00 | 0.00 | 87 | 1009.0 |
| 20260508195946 | 78 | 292 | 0.0 | 0.0 | 0.00 | 0.00 | 0.00 | 87 | 1009.0 |
| 20260508195447 | 78 | 292 | 0.0 | 0.0 | 0.00 | 0.00 | 0.00 | 88 | 1009.0 |
| 20260508194946 | 78 | 292 | 0.0 | 0.0 | 0.00 | 0.00 | 0.00 | 88 | 1009.0 |
| 20260508194447 | 78 | 292 | 0.0 | 0.0 | 0.00 | 0.00 | 0.00 | 89 | 1009.0 |
| 20260508193947 | 78 | 292 | 0.0 | 0.0 | 0.00 | 0.00 | 0.00 | 89 | 1009.0 |
| 20260508193446 | 78 | 292 | 0.9 | 0.9 | 0.00 | 0.00 | 0.00 | 88 | 1009.0 |
| 20260508192947 | 78 | 292 | 0.0 | 0.9 | 0.00 | 0.00 | 0.00 | 88 | 1009.0 |
| 20260508192447 | 78 | 292 | 0.9 | 0.9 | 0.00 | 0.00 | 0.00 | 88 | 1009.0 |
| 20260508191947 | 78 | 291 | 0.0 | 0.9 | 0.00 | 0.00 | 0.00 | 87 | 1009.0 |
| 20260508191447 | 79 | 291 | 0.0 | 0.0 | 0.00 | 0.00 | 0.00 | 86 | 1009.0 |
| 20260508190948 | 79 | 291 | 0.0 | 0.0 | 0.00 | 0.00 | 0.00 | 87 | 1009.0 |
| 20260508190447 | 79 | 291 | 0.0 | 0.0 | 0.00 | 0.00 | 0.00 | 87 | 1009.0 |
| 20260508185947 | 79 | 291 | 0.9 | 0.9 | 0.00 | 0.00 | 0.00 | 87 | 1009.0 |
| 20260508185446 | 79 | 292 | 0.9 | 0.9 | 0.00 | 0.00 | 0.00 | 87 | 1010.0 |
| 20260508184947 | 79 | 298 | 0.0 | 0.0 | 0.00 | 0.00 | 0.00 | 86 | 1009.0 |
| 20260508184446 | 79 | 298 | 0.0 | 0.0 | 0.00 | 0.00 | 0.00 | 86 | 1010.0 |
| 20260508183946 | 79 | 298 | 0.0 | 0.0 | 0.00 | 0.00 | 0.00 | 86 | 1010.0 |
| 20260508183446 | 79 | 298 | 0.0 | 0.9 | 0.00 | 0.00 | 0.00 | 86 | 1010.0 |
| 20260508182947 | 79 | 298 | 0.0 | 0.9 | 0.00 | 0.00 | 0.19 | 85 | 1010.0 |
| 20260508182446 | 78 | 298 | 0.0 | 0.0 | 0.00 | 0.00 | 0.19 | 86 | 1010.0 |
| 20260508181946 | 79 | 298 | 0.0 | 0.0 | 0.00 | 0.00 | 0.19 | 86 | 1010.0 |
| 20260508181446 | 79 | 298 | 0.0 | 0.0 | 0.00 | 0.00 | 0.19 | 86 | 1010.0 |
| 20260508180946 | 78 | 298 | 0.0 | 0.0 | 0.00 | 0.00 | 0.19 | 86 | 1010.0 |
| 20260508180447 | 78 | 298 | 0.0 | 0.0 | 0.00 | 0.00 | 0.19 | 86 | 1010.0 |
| 20260508175946 | 78 | 298 | 0.9 | 0.9 | 0.00 | 0.00 | 0.19 | 86 | 1010.0 |
| 20260508175446 | 78 | 298 | 0.0 | 0.0 | 0.00 | 0.00 | 0.19 | 87 | 1010.0 |
| 20260508174946 | 78 | 298 | 0.0 | 0.9 | 0.00 | 0.00 | 0.19 | 87 | 1011.0 |
| 20260508174447 | 78 | 298 | 0.9 | 1.7 | 0.00 | 0.00 | 0.19 | 87 | 1010.0 |
| 20260508173946 | 78 | 268 | 1.7 | 1.7 | 0.00 | 0.00 | 0.19 | 86 | 1010.0 |
| 20260508173447 | 78 | 248 | 0.9 | 0.9 | 0.00 | 0.00 | 0.19 | 86 | 1011.0 |
| 20260508172947 | 78 | 248 | 0.0 | 0.0 | 0.00 | 0.00 | 0.19 | 85 | 1011.0 |
| 20260508172447 | 78 | 248 | 0.0 | 0.0 | 0.00 | 0.00 | 0.19 | 85 | 1011.0 |
| 20260508171947 | 78 | 248 | 0.9 | 0.9 | 0.00 | 0.00 | 0.19 | 85 | 1011.0 |
| 20260508171044 | 78 | 244 | 0.9 | 1.7 | 0.00 | 0.00 | 0.19 | 85 | 1011.0 |
| 20260508170446 | 78 | 242 | 0.9 | 0.9 | 0.00 | 0.00 | 0.19 | 85 | 1011.0 |
| 20260508165947 | 78 | 238 | 0.9 | 0.9 | 0.00 | 0.00 | 0.19 | 84 | 1011.0 |
| 20260508165447 | 79 | 240 | 0.0 | 0.9 | 0.00 | 0.00 | 0.19 | 85 | 1011.0 |
| 20260508164946 | 78 | 240 | 0.9 | 0.9 | 0.00 | 0.00 | 0.19 | 84 | 1011.0 |
| 20260508164447 | 79 | 246 | 0.9 | 1.7 | 0.00 | 0.00 | 0.19 | 85 | 1011.0 |
| 20260508163947 | 78 | 238 | 0.9 | 0.9 | 0.00 | 0.00 | 0.19 | 85 | 1011.0 |
| 20260508163447 | 79 | 235 | 1.7 | 1.7 | 0.00 | 0.00 | 0.19 | 85 | 1011.0 |
| 20260508162947 | 78 | 253 | 0.9 | 0.9 | 0.00 | 0.00 | 0.19 | 85 | 1011.0 |
| 20260508162447 | 78 | 245 | 0.9 | 0.9 | 0.00 | 0.00 | 0.19 | 86 | 1011.0 |
| 20260508161948 | 79 | 246 | 1.7 | 2.6 | 0.00 | 0.00 | 0.19 | 86 | 1011.0 |
| 20260508161447 | 79 | 254 | 1.7 | 1.7 | 0.00 | 0.00 | 0.19 | 85 | 1011.0 |
| 20260508160948 | 80 | 201 | 0.9 | 1.7 | 0.00 | 0.00 | 0.19 | 85 | 1011.0 |
| 20260508160447 | 80 | 197 | 0.9 | 0.9 | 0.00 | 0.00 | 0.19 | 85 | 1011.0 |
| 20260508155946 | 80 | 194 | 0.0 | 0.9 | 0.00 | 0.00 | 0.19 | 85 | 1010.0 |
| 20260508155448 | 80 | 216 | 0.9 | 0.9 | 0.00 | 0.00 | 0.19 | 85 | 1010.0 |
| 20260508154946 | 80 | 173 | 0.0 | 0.0 | 0.00 | 0.00 | 0.19 | 85 | 1010.0 |
| 20260508154447 | 80 | 171 | 1.7 | 1.7 | 0.00 | 0.00 | 0.19 | 84 | 1010.0 |
| 20260508153946 | 80 | 153 | 1.7 | 1.7 | 0.00 | 0.00 | 0.19 | 83 | 1010.0 |
| 20260508153447 | 80 | 141 | 1.7 | 1.7 | 0.00 | 0.00 | 0.19 | 83 | 1010.0 |
| 20260508152946 | 80 | 82 | 0.0 | 0.9 | 0.00 | 0.00 | 0.19 | 83 | 1010.0 |
| 20260508152447 | 80 | 106 | 0.9 | 1.7 | 0.00 | 0.00 | 0.19 | 83 | 1010.0 |
| 20260508151946 | 81 | 111 | 0.9 | 1.7 | 0.00 | 0.00 | 0.19 | 82 | 1010.0 |
| 20260508151447 | 81 | 121 | 1.7 | 1.7 | 0.00 | 0.00 | 0.19 | 82 | 1010.0 |
| 20260508150947 | 81 | 151 | 1.7 | 1.7 | 0.00 | 0.00 | 0.19 | 80 | 1010.0 |
| 20260508150446 | 81 | 138 | 3.5 | 3.5 | 0.00 | 0.00 | 0.19 | 78 | 1010.0 |
| 20260508145946 | 82 | 116 | 3.5 | 3.5 | 0.00 | 0.00 | 0.19 | 78 | 1010.0 |
| 20260508145447 | 82 | 123 | 3.5 | 3.5 | 0.00 | 0.00 | 0.19 | 77 | 1010.0 |
| 20260508144946 | 82 | 133 | 3.5 | 3.5 | 0.00 | 0.00 | 0.19 | 77 | 1010.0 |
| 20260508144449 | 82 | 97 | 3.5 | 5.2 | 0.00 | 0.00 | 0.19 | 77 | 1010.0 |
| 20260508143947 | 82 | 124 | 2.6 | 2.6 | 0.00 | 0.00 | 0.19 | 77 | 1010.0 |
| 20260508143447 | 82 | 131 | 3.5 | 3.5 | 0.00 | 0.00 | 0.19 | 77 | 1009.0 |
| 20260508142946 | 82 | 135 | 1.7 | 2.6 | 0.00 | 0.00 | 0.19 | 76 | 1009.0 |
| 20260508142451 | 82 | 146 | 4.3 | 5.2 | 0.00 | 0.00 | 0.19 | 76 | 1009.0 |
| 20260508141946 | 82 | 96 | 3.5 | 3.5 | 0.00 | 0.00 | 0.19 | 76 | 1009.0 |
| 20260508141447 | 82 | 119 | 4.3 | 6.1 | 0.00 | 0.00 | 0.19 | 75 | 1009.0 |
| 20260508140946 | 82 | 142 | 4.3 | 5.2 | 0.00 | 0.00 | 0.19 | 76 | 1009.0 |
| 20260508140446 | 82 | 131 | 3.5 | 3.5 | 0.00 | 0.00 | 0.19 | 74 | 1009.0 |
| 20260508135946 | 82 | 70 | 3.5 | 5.2 | 0.00 | 0.00 | 0.19 | 74 | 1009.0 |
| 20260508135447 | 82 | 123 | 1.7 | 3.5 | 0.00 | 0.00 | 0.19 | 75 | 1009.0 |
| 20260508134946 | 82 | 133 | 3.5 | 5.2 | 0.00 | 0.00 | 0.19 | 75 | 1009.0 |
| 20260508134446 | 82 | 99 | 7.8 | 11.3 | 0.00 | 0.00 | 0.19 | 74 | 1009.0 |
| 20260508133946 | 81 | 143 | 5.2 | 6.1 | 0.00 | 0.00 | 0.19 | 76 | 1008.0 |
| 20260508133453 | 81 | 87 | 7.0 | 8.7 | 0.00 | 0.00 | 0.19 | 74 | 1008.0 |
| 20260508132947 | 81 | 101 | 7.0 | 8.7 | 0.00 | 0.00 | 0.19 | 76 | 1008.0 |
| 20260508132447 | 80 | 90 | 7.8 | 8.7 | 0.00 | 0.00 | 0.19 | 77 | 1008.0 |
| 20260508131946 | 80 | 156 | 7.0 | 7.8 | 0.00 | 0.00 | 0.19 | 78 | 1007.0 |
| 20260508131449 | 80 | 123 | 7.8 | 13.0 | 0.00 | 0.00 | 0.19 | 78 | 1007.0 |
| 20260508130946 | 80 | 113 | 6.1 | 7.8 | 0.00 | 0.00 | 0.19 | 78 | 1007.0 |
| 20260508130446 | 80 | 106 | 6.1 | 7.8 | 0.00 | 0.00 | 0.19 | 78 | 1007.0 |
| 20260508125947 | 80 | 120 | 6.1 | 7.8 | 0.00 | 0.00 | 0.19 | 78 | 1007.0 |
| 20260508125447 | 80 | 102 | 5.2 | 7.0 | 0.00 | 0.00 | 0.19 | 77 | 1007.0 |
| 20260508124947 | 80 | 117 | 4.3 | 6.1 | 0.00 | 0.00 | 0.19 | 77 | 1007.0 |
| 20260508122947 | 85 | 115 | 12.2 | 15.6 | 0.00 | 0.00 | 0.19 | 71 | 1007.0 |
| 20260508122447 | 86 | 143 | 4.3 | 6.1 | 0.00 | 0.00 | 0.19 | 69 | 1007.0 |
| 20260508121947 | 87 | 109 | 3.5 | 5.2 | 0.00 | 0.00 | 0.19 | 64 | 1006.0 |
| 20260508121447 | 87 | 97 | 6.1 | 7.8 | 0.00 | 0.00 | 0.19 | 63 | 1006.0 |
| 20260508120947 | 88 | 109 | 6.1 | 7.0 | 0.00 | 0.00 | 0.19 | 64 | 1006.0 |
| 20260508120446 | 88 | 78 | 8.7 | 11.3 | 0.00 | 0.00 | 0.19 | 63 | 1005.0 |
| 20260508115947 | 89 | 104 | 7.8 | 9.6 | 0.00 | 0.00 | 0.19 | 61 | 1005.0 |
| 20260508115446 | 90 | 136 | 7.0 | 7.8 | 0.00 | 0.00 | 0.19 | 61 | 1006.0 |
| 20260508114947 | 90 | 122 | 2.6 | 3.5 | 0.00 | 0.00 | 0.19 | 66 | 1006.0 |
| 20260508114446 | 90 | 149 | 9.6 | 11.3 | 0.00 | 0.00 | 0.19 | 66 | 1006.0 |
| 20260508113946 | 90 | 130 | 7.8 | 11.3 | 0.00 | 0.00 | 0.19 | 65 | 1006.0 |
| 20260508113446 | 90 | 113 | 5.2 | 7.0 | 0.00 | 0.00 | 0.19 | 65 | 1005.0 |
| 20260508112946 | 89 | 132 | 6.1 | 7.8 | 0.00 | 0.00 | 0.19 | 65 | 1005.0 |
| 20260508112446 | 89 | 148 | 3.5 | 5.2 | 0.00 | 0.00 | 0.19 | 64 | 1005.0 |
| 20260508111947 | 90 | 126 | 3.5 | 5.2 | 0.00 | 0.00 | 0.19 | 63 | 1006.0 |
| 20260508111446 | 90 | 137 | 6.1 | 7.0 | 0.00 | 0.00 | 0.19 | 61 | 1005.0 |
| 20260508110947 | 90 | 136 | 5.2 | 5.2 | 0.00 | 0.00 | 0.19 | 62 | 1005.0 |
| 20260508110446 | 90 | 116 | 7.0 | 8.7 | 0.00 | 0.00 | 0.19 | 61 | 1005.0 |
| 20260508105947 | 91 | 117 | 7.8 | 8.7 | 0.00 | 0.00 | 0.19 | 62 | 1005.0 |
| 20260508105446 | 91 | 174 | 6.1 | 7.8 | 0.00 | 0.00 | 0.19 | 63 | 1005.0 |
| 20260508104946 | 91 | 153 | 7.0 | 8.7 | 0.00 | 0.00 | 0.19 | 62 | 1005.0 |
| 20260508104446 | 92 | 140 | 6.1 | 7.8 | 0.00 | 0.00 | 0.19 | 63 | 1005.0 |
| 20260508103947 | 95 | 133 | 5.2 | 7.0 | 0.00 | 0.00 | 0.19 | 62 | 1005.0 |
| 20260508103447 | 97 | 141 | 7.0 | 7.8 | 0.00 | 0.00 | 0.19 | 53 | 1005.0 |
| 20260508102947 | 96 | 118 | 4.3 | 5.2 | 0.00 | 0.00 | 0.19 | 48 | 1005.0 |
| 20260508102446 | 97 | 117 | 0.9 | 1.7 | 0.00 | 0.00 | 0.19 | 49 | 1005.0 |
| 20260508101947 | 97 | 45 | 1.7 | 3.5 | 0.00 | 0.00 | 0.19 | 49 | 1005.0 |
| 20260508101446 | 97 | 310 | 0.9 | 0.9 | 0.00 | 0.00 | 0.19 | 47 | 1005.0 |
| 20260508100946 | 97 | 61 | 1.7 | 1.7 | 0.00 | 0.00 | 0.19 | 47 | 1005.0 |
| 20260508100447 | 96 | 61 | 1.7 | 1.7 | 0.00 | 0.00 | 0.19 | 50 | 1005.0 |
| 20260508095947 | 97 | 64 | 1.7 | 2.6 | 0.00 | 0.00 | 0.19 | 49 | 1005.0 |
| 20260508095446 | 97 | 342 | 2.6 | 2.6 | 0.00 | 0.00 | 0.19 | 49 | 1005.0 |
| 20260508094948 | 98 | 26 | 3.5 | 6.1 | 0.00 | 0.00 | 0.19 | 49 | 1005.0 |
| 20260508094446 | 97 | 33 | 0.0 | 0.0 | 0.00 | 0.00 | 0.19 | 47 | 1005.0 |
| 20260508093946 | 98 | 63 | 0.9 | 1.7 | 0.00 | 0.00 | 0.19 | 49 | 1005.0 |
| 20260508093447 | 96 | 12 | 1.7 | 2.6 | 0.00 | 0.00 | 0.19 | 50 | 1005.0 |
| 20260508092946 | 97 | 71 | 2.6 | 3.5 | 0.00 | 0.00 | 0.19 | 50 | 1006.0 |
| 20260508092446 | 95 | 278 | 3.5 | 3.5 | 0.00 | 0.00 | 0.19 | 52 | 1005.0 |
| 20260508091947 | 96 | 73 | 0.9 | 0.9 | 0.00 | 0.00 | 0.19 | 52 | 1005.0 |
| 20260508091447 | 96 | 300 | 1.7 | 1.7 | 0.00 | 0.00 | 0.19 | 52 | 1006.0 |
| 20260508090946 | 96 | 31 | 4.3 | 6.1 | 0.00 | 0.00 | 0.19 | 52 | 1006.0 |
| 20260508090449 | 96 | 123 | 1.7 | 2.6 | 0.00 | 0.00 | 0.19 | 51 | 1006.0 |
| 20260508085946 | 95 | 348 | 0.9 | 0.9 | 0.00 | 0.00 | 0.19 | 52 | 1006.0 |
| 20260508085447 | 95 | 16 | 2.6 | 3.5 | 0.00 | 0.00 | 0.19 | 53 | 1006.0 |
| 20260508084947 | 94 | 23 | 4.3 | 5.2 | 0.00 | 0.00 | 0.19 | 53 | 1006.0 |
| 20260508084447 | 94 | 10 | 2.6 | 2.6 | 0.00 | 0.00 | 0.19 | 54 | 1006.0 |
| 20260508083946 | 95 | 33 | 3.5 | 5.2 | 0.00 | 0.00 | 0.19 | 53 | 1007.0 |
| 20260508083447 | 95 | 350 | 1.7 | 2.6 | 0.00 | 0.00 | 0.19 | 53 | 1007.0 |
| 20260508082949 | 95 | 359 | 0.9 | 0.9 | 0.00 | 0.00 | 0.19 | 54 | 1007.0 |
| 20260508082448 | 95 | 79 | 1.7 | 1.7 | 0.00 | 0.00 | 0.19 | 54 | 1007.0 |
| 20260508081948 | 95 | 8 | 0.9 | 0.9 | 0.00 | 0.00 | 0.19 | 53 | 1007.0 |
| 20260508081449 | 95 | 156 | 4.3 | 7.0 | 0.00 | 0.00 | 0.19 | 54 | 1007.0 |
| 20260508080946 | 96 | 81 | 0.9 | 1.7 | 0.00 | 0.00 | 0.19 | 53 | 1007.0 |
| 20260508080446 | 95 | 11 | 2.6 | 3.5 | 0.00 | 0.00 | 0.19 | 54 | 1007.0 |
| 20260508075948 | 95 | 45 | 0.0 | 0.0 | 0.00 | 0.00 | 0.19 | 54 | 1007.0 |
| 20260508075448 | 94 | 67 | 2.6 | 3.5 | 0.00 | 0.00 | 0.19 | 56 | 1007.0 |
| 20260508074947 | 96 | 6 | 4.3 | 6.1 | 0.00 | 0.00 | 0.19 | 55 | 1007.0 |
| 20260508074446 | 94 | 194 | 1.7 | 2.6 | 0.00 | 0.00 | 0.19 | 55 | 1007.0 |
| 20260508073949 | 93 | 58 | 0.9 | 1.7 | 0.00 | 0.00 | 0.19 | 56 | 1008.0 |
| 20260508073446 | 93 | 336 | 0.9 | 1.7 | 0.00 | 0.00 | 0.19 | 58 | 1008.0 |
| 20260508072946 | 92 | 10 | 2.6 | 5.2 | 0.00 | 0.00 | 0.19 | 58 | 1008.0 |
| 20260508072446 | 92 | 64 | 1.7 | 2.6 | 0.00 | 0.00 | 0.19 | 60 | 1008.0 |
| 20260508071946 | 92 | 124 | 3.5 | 3.5 | 0.00 | 0.00 | 0.19 | 59 | 1008.0 |
| 20260508071446 | 92 | 156 | 3.5 | 3.5 | 0.00 | 0.00 | 0.19 | 59 | 1008.0 |
| 20260508070947 | 92 | 111 | 0.9 | 1.7 | 0.00 | 0.00 | 0.19 | 59 | 1008.0 |
| 20260508070446 | 93 | 145 | 1.7 | 2.6 | 0.00 | 0.00 | 0.19 | 59 | 1008.0 |
| 20260508065946 | 92 | 143 | 1.7 | 1.7 | 0.00 | 0.00 | 0.19 | 61 | 1008.0 |
| 20260508065446 | 91 | 124 | 3.5 | 3.5 | 0.00 | 0.00 | 0.19 | 63 | 1008.0 |
| 20260508064948 | 91 | 163 | 3.5 | 3.5 | 0.00 | 0.00 | 0.19 | 62 | 1008.0 |
| 20260508064448 | 91 | 307 | 1.7 | 2.6 | 0.00 | 0.00 | 0.19 | 62 | 1008.0 |
| 20260508063946 | 92 | 38 | 2.6 | 2.6 | 0.00 | 0.00 | 0.19 | 61 | 1008.0 |
| 20260508050946 | 89 | 337 | 2.6 | 2.6 | 0.00 | 0.00 | 0.19 | 69 | 1010.0 |
| 20260508050446 | 87 | 286 | 0.9 | 1.7 | 0.00 | 0.00 | 0.19 | 69 | 1010.0 |
| 20260508045946 | 86 | 122 | 0.9 | 0.9 | 0.00 | 0.00 | 0.19 | 71 | 1010.0 |
| 20260508045447 | 87 | 119 | 1.7 | 1.7 | 0.00 | 0.00 | 0.19 | 70 | 1010.0 |
| 20260508044946 | 88 | 228 | 0.9 | 0.9 | 0.00 | 0.00 | 0.19 | 70 | 1010.0 |
| 20260508044446 | 88 | 224 | 1.7 | 2.6 | 0.00 | 0.00 | 0.19 | 71 | 1010.0 |
| 20260508043947 | 88 | 223 | 0.0 | 0.9 | 0.00 | 0.00 | 0.19 | 70 | 1010.0 |
| 20260508043446 | 86 | 239 | 0.9 | 0.9 | 0.00 | 0.00 | 0.19 | 72 | 1010.0 |
| 20260508042946 | 86 | 42 | 1.7 | 1.7 | 0.00 | 0.00 | 0.19 | 72 | 1010.0 |
| 20260508042447 | 86 | 11 | 1.7 | 2.6 | 0.00 | 0.00 | 0.19 | 72 | 1010.0 |
| 20260508041946 | 86 | 344 | 1.7 | 1.7 | 0.00 | 0.00 | 0.19 | 73 | 1010.0 |
| 20260508041446 | 86 | 286 | 0.0 | 0.9 | 0.00 | 0.00 | 0.19 | 73 | 1010.0 |
| 20260508040946 | 85 | 314 | 0.9 | 1.7 | 0.00 | 0.00 | 0.19 | 74 | 1010.0 |
| 20260508040447 | 85 | 348 | 2.6 | 2.6 | 0.00 | 0.00 | 0.19 | 74 | 1010.0 |
| 20260508035946 | 86 | 290 | 0.9 | 0.9 | 0.00 | 0.00 | 0.19 | 72 | 1010.0 |
| 20260508035447 | 86 | 246 | 0.9 | 0.9 | 0.00 | 0.00 | 0.19 | 74 | 1010.0 |
| 20260508034946 | 85 | 235 | 0.0 | 0.9 | 0.00 | 0.00 | 0.19 | 74 | 1010.0 |
| 20260508034446 | 84 | 325 | 0.9 | 0.9 | 0.00 | 0.00 | 0.19 | 76 | 1010.0 |